Regional Weather Roundup
Issued by NWS Glasgow, MT

Home | Current Version | Previous Version | Text Only | Print | Product List | Glossary On
Versions: 1 2 3 4 5 6 7 8 9 10 11 12 13 14 15 16 17 18 19 20 21 22 23 24 25 26 27 28 29 30 31 32 33 34 35 36 37 38 39 40 41 42 43 44 45 46 47 48 49 50
000
ASUS45 KGGW 300415
RWRGGW
HOURLY REGIONAL WEATHER ROUNDUP FOR NORTHEAST MONTANA
NATIONAL WEATHER SERVICE GLASGOW MONTANA
1000 PM MDT MON JUN 29 2015

NOTE: "FAIR" INDICATES FEW OR NO CLOUDS BELOW 12,000 FEET WITH NO
SIGNIFICANT WEATHER AND/OR OBSTRUCTIONS TO VISISBILITY.

NORTHEAST MONTANA


CITY           SKY/WX    TMP DP  RH WIND       PRES   REMARKS
GLASGOW        NOT AVBL
PLENTYWOOD       N/A     71  47  42 NE15G23     N/A
WOLF POINT     HAZE      77  48  35 E12       29.99R VSB 1
JORDAN           N/A     82  52  35 NE7       29.99R
WINNETT          N/A     80  53  39 S5G17       N/A
SIDNEY         CLOUDY    79  54  41 N14       29.98R
GLENDIVE       MOCLDY    81  61  50 NE10      29.99R
MALTA            N/A     78  46  32 E10G21      N/A
SCOBEY           N/A     67  45  45 N7        30.03R HAZE

FORT PECK REPORTS


CITY           SKY/WX    TMP DP  RH WIND       PRES   REMARKS
FORT PECK        N/A     77  43  29 NE20G29     N/A
THE PINES        N/A     77  46  33 NE16G30     N/A

SOUTHEAST MONTANA


CITY           SKY/WX    TMP DP  RH WIND       PRES   REMARKS
BILLINGS       CLOUDY    76  56  49 NW21      30.10S
MILES CITY     PTCLDY    83  50  31 NE10      29.95R
BAKER          PTCLDY    73  57  57 CALM      30.00R
LIVINGSTON     MOCLDY    70  32  24 CALM      30.18R

CENTRAL MONTANA


CITY           SKY/WX    TMP DP  RH WIND       PRES   REMARKS
HAVRE          MOCLDY    81  54  39 E20       29.94R
LEWISTOWN      CLOUDY    72  57  59 SE3       30.06S
GREAT FALLS    TSTM      69  61  75 SW30G39   30.02R
CUT BANK       CLOUDY    71  56  58 N16       30.00
HELENA         LGT RAIN  74  59  59 S3        30.09F
BUTTE          CLOUDY    66  59  78 S9        30.20R
BOZEMAN        CLOUDY    71  55  56 S10       30.15R

WESTERN MONTANA


CITY           SKY/WX    TMP DP  RH WIND       PRES   REMARKS
MISSOULA       CLOUDY    78  60  53 SE14      29.99R
KALISPELL      NOT AVBL

NORTH DAKOTA


CITY           SKY/WX    TMP DP  RH WIND       PRES   REMARKS
WILLISTON      CLOUDY    75  54  47 N16       29.98R HAZE
DICKINSON      MOCLDY    73  65  75 NE7       29.94R
MINOT          CLOUDY    72  62  71 E7        29.92R
BISMARCK       PTCLDY    75  64  68 E6        29.92R

SOUTHERN SASKATCHEWAN


CITY           SKY/WX    TMP DP  RH WIND       PRES   REMARKS
REGINA         CLOUDY    66  55  68 NE8       30.00S SMOKE
ESTEVAN          N/A     66  57  72 NE15      29.99R SMOKE
SWIFT CURRENT  HAZE      68  50  52 E10       30.03S VSB 3/4



USA.gov is the U.S. government's official web portal to all federal, state and local government web resources and services.